Location: Maccacari
(45.1333°N, 11.1333°E)
Time: 15:13:01
(UTC+00:00)

S-56A Canister/Altair - Pass Details

Date: 22 January 2021
Orbit: 631 x 2501 km, 38.9° (Epoch: 01 March)

Event Time Altitude Azimuth Distance (km) Brightness Sun altitude
Rises 08:14:57 0° 266° (W) 3,473 10.5 11.9°
Reaches altitude 10° 08:18:14 10° 245° (WSW) 2,788 10.2 12.3°
Maximum altitude 08:22:16 17° 208° (SSW) 2,657 10.6 12.8°
Drops below altitude 10° 08:27:13 10° 173° (S) 3,548 12.0 13.4°
Sets 08:32:17 0° 156° (SSE) 4,946 13.2 14.1°
